SL-16 DEB, 39302

Orbit data source: Space-Track

SL-16 DEB, 39302 is space debris in LEO originally from a launch on Fri, 25 Dec 1992 UTC launched from the Tyuratam Missile And Space Complex (TTMTR). Debris objects in space refer to the collection of defunct objects orbiting the Earth. Examples of debris include non-operational satellites, rocket bodies, and fragments generated from explosions, collisions, or faulty payload assembly.

Loading next visibility...
Identifier
39302, 1992-093JT
Orbit
LEO
Country
Flag of CISCIS
Related business
Manufacturer
Unknown
Mission
Spacecraft
Bus & Motor
Unknown
Mass
Unknown
Launch date (UTC)
1992-12-25 (33 years ago)
Launch vehicle
Unknown
Launch site
Tyuratam Missile And Space Complex (TTMTR)
Object type
Payload
Rocket body
Debris
Shape & HBR
Unknown shape, 0.1 m
Radar Cross Section
Small (<0.1 m²)

Expand to show TLE details & history
Last TLE update: 2 weeks ago

TLE from 2 weeks ago
0 SL-16 DEB
1 39302U 92093JT  25341.43201890  .00013445  00000-0  47759-2 0  9993
2 39302  70.9834  44.2079 0123979 251.7179 123.8626 14.30255912630840
Epoch: 2025-12-07T10:22Z
TLE epoch observation values (Epoch: 2025-12-07T10:22:06.432Z)
Latitude
15.80006°
Longitude
177.80278°
Altitude
842.899 km
Speed
7.407 km/s
True Right ascension
03h 19m 06s
True Declination
15° 42' 41"
Sunlit
Object was in full shadow at epoch
Visualization orbit readout
Latitude
Unknown
Longitude
Unknown
Altitude
Unknown
Speed
Unknown
Apparent Right ascension
Unknown
Apparent Declination
Unknown
Sunlit
N/A
Visualization observer readout
Local Sidereal Time
16:22:57
Azimuth
Unknown
Elevation
Unknown
Doppler factor
Unknown
Orbital elements
Apogee altitude
877.641 km
Perigee altitude
699.932 km
Semi-major axis
7,166.924 km
Eccentricity
0.0124
Inclination
70.9834°
RAAN
44.2079°
Arg. of periapsis
251.7179°
True anomaly
125.03213°
Mean anomaly
123.8626°
Eccentric anomaly
124.44838°
Mean motion
3.57721 °/min
Orbital period
100.64 mins
BSTAR
0.0047759
Loading maneuver chart data...
Computing Atmospheric mass density...
Loading historical data...
Loading historical data...
Loading historical data...
Loading historical data...
Loading historical data...
Loading historical data...
Loading historical data...

Documentation

Showing up to 5 results
|